Wind_Speed
31 27 23 22 19 18 14 24 28 30 30 27 25 28 33 36 33 34 40 46 48 49 52 56 57 60 66 61 58 54 49 47 43 41 39 51 58 62 63 69 74 78 80 85
27 27 24 20 19 21 26 27 25 29 37 38 38 40 38 39 40 46 49 49 48 50 47 48 49 51 50 51 47 47 47 45 41 40 40 50 54 63 72 70 73 75 75 77
30 26 25 24 21 22 23 24 26 27 27 35 38 41 47 49 48 46 48 52 50 50 49 42 43 43 43 44 42 39 37 38 40 41 44 47 52 56 60 64 67 70 73 75
25 26 25 25 24 25 26 26 26 27 27 30 31 32 33 35 35 36 36 38 40 38 35 36 35 36 34 33 35 36 40 43 46 48 51 54 57 60 64 66 69 70 73 75
25 24 25 25 25 25 25 27 28 28 29 29 30 31 30 29 31 32 32 33 33 31 29 26 24 27 31 35 38 41 44 48 50 53 56 58 61 63 65 67 69 71 73 75
24 25 24 24 24 23 23 24 25 25 26 28 27 28 26 27 28 29 27 25 21 19 21 24 27 31 35 38 42 45 48 51 54 57 60 62 64 66 67 68 69 69 69 69
24 22 22 23 23 21 19 19 23 26 26 24 24 24 23 22 20 16 13 13 16 19 23 27 30 34 38 40 42 44 47 51 54 57 59 61 62 64 64 66 65 64 63 66
20 20 21 19 17 17 20 22 22 21 19 20 21 17 13 9 9 12 13 15 18 22 26 30 33 35 38 41 43 48 53 57 58 58 59 60 61 62 63 63 61 63 67 70
20 20 19 19 21 23 24 21 19 19 18 16 12 10 9 9 11 13 15 18 21 25 28 30 35 39 40 42 47 51 55 58 59 60 61 62 61 60 60 62 64 70 76 79
20 20 20 19 19 19 18 15 14 13 13 13 11 8 9 12 14 16 19 21 21 24 27 33 36 39 42 45 49 53 55 56 57 57 58 59 59 58 61 64 72 77 81 87
17 15 16 17 17 16 15 12 13 13 11 10 10 11 14 16 18 20 20 20 24 27 32 33 36 42 46 49 53 56 59 60 61 60 59 59 61 63 67 72 77 82 88 94
16 16 16 15 17 18 18 17 16 13 12 13 14 15 18 20 22 22 23 26 30 33 37 38 45 47 50 55 57 60 61 63 65 66 66 66 68 70 73 79 82 89 95 101
15 16 16 18 18 16 15 16 16 15 15 16 19 19 21 23 25 27 29 31 35 38 41 44 50 52 54 59 60 63 65 67 69 71 72 72 73 76 80 84 90 97 104 105
16 17 17 16 16 17 18 17 17 17 17 19 23 24 24 27 31 32 34 36 40 43 45 50 54 57 60 64 66 68 72 75 76 75 77 79 78 79 84 91 97 105 109 109
17 17 16 17 18 18 18 19 20 19 19 23 26 28 27 30 34 36 39 42 47 49 52 56 61 64 66 69 71 74 78 81 81 82 83 84 82 84 91 97 104 110 113 112
20 19 21 22 22 22 20 23 24 21 24 27 28 34 35 36 39 42 44 48 52 55 59 63 66 70 71 76 78 81 84 86 86 87 90 88 86 90 98 104 111 115 117 114
23 23 24 25 23 22 25 28 25 26 30 31 33 36 38 42 44 46 48 53 57 61 65 68 70 74 78 81 84 85 89 91 89 92 94 92 92 97 104 111 116 121 118 115
26 25 25 26 25 25 32 32 30 31 34 37 39 40 43 46 48 50 53 56 60 66 69 72 75 79 83 85 87 91 94 93 93 96 98 95 98 103 110 117 121 122 117 115
29 28 28 29 30 31 35 36 35 35 40 42 44 46 49 50 50 54 57 61 65 70 73 76 80 84 87 89 93 97 96 94 97 100 98 99 103 110 117 121 123 118 113 114
31 30 30 34 34 34 37 38 39 41 42 47 50 51 53 52 55 59 62 66 70 73 77 80 84 88 89 93 97 98 96 99 102 100 100 104 111 117 122 123 116 113 113 112
33 32 33 34 35 36 39 41 43 45 48 49 52 55 57 59 61 66 68 70 73 79 82 86 89 91 95 98 99 97 97 102 102 101 106 111 119 123 126 116 113 115 114 108
34 34 36 36 38 38 41 42 45 48 51 53 54 57 59 63 67 70 71 74 79 82 86 89 92 96 99 100 100 99 103 104 104 107 113 119 124 125 117 116 114 117 112 105
37 38 41 41 42 43 44 45 48 52 54 57 57 58 62 65 69 74 77 80 83 87 90 93 97 100 101 100 100 104 105 106 109 114 120 124 124 117 115 117 116 113 109 107
40 42 42 43 46 46 48 50 52 51 52 54 59 65 69 71 74 76 79 83 87 91 95 99 101 100 99 102 105 104 106 110 115 121 124 121 115 116 117 115 112 107 107 102
43 44 44 45 47 48 49 50 52 54 58 63 67 71 74 76 80 82 85 89 93 98 101 100 98 100 104 106 105 108 112 117 122 127 120 118 119 118 115 111 108 110 105 96
46 46 47 47 49 51 53 55 58 62 65 69 72 75 79 82 85 87 92 96 100 99 96 99 102 104 104 107 111 114 120 124 126 122 119 120 119 117 113 109 108 102 94 87
Wind_Direction
185 187 189 189 196 199 205 199 205 209 212 219 225 226 234 238 240 243 247 253 260 263 263 266 271 270 270 276 278 280 280 282 280 281 253 251 249 260 266 267 269 273 280 285
185 188 188 187 188 191 203 209 213 217 223 227 228 231 240 247 252 252 255 262 267 267 271 279 276 274 276 279 280 284 284 282 281 279 267 261 268 267 271 276 275 280 283 286
184 188 191 190 197 201 198 204 210 217 222 228 235 238 240 244 250 258 261 264 268 271 269 269 271 278 282 287 289 288 290 290 292 289 286 284 282 283 282 283 285 286 286 289
188 196 204 211 212 215 218 220 227 235 243 244 247 250 251 251 256 262 264 261 261 265 272 275 278 281 285 289 293 296 297 296 295 294 292 291 289 289 289 290 290 291 291 290
203 209 214 219 222 223 226 231 235 240 241 241 249 254 255 256 256 260 261 261 266 274 280 283 286 291 296 298 298 298 298 297 296 295 293 292 291 290 289 289 289 289 289 290
211 213 216 219 223 227 229 232 235 243 249 250 252 256 257 258 258 261 267 275 280 284 291 296 299 298 297 300 301 302 301 299 298 296 293 291 290 290 290 291 292 293 295 297
213 214 217 215 215 220 226 235 241 242 244 249 253 259 263 265 267 269 270 279 287 293 295 296 297 300 301 300 300 300 300 300 300 298 296 296 295 295 295 297 298 299 301 303
202 200 201 201 209 220 228 233 238 245 250 254 258 257 249 241 250 264 277 286 291 293 296 298 298 299 301 302 302 304 304 303 303 301 299 298 297 296 297 299 301 303 304 304
198 202 208 210 216 220 223 224 231 235 236 235 211 212 237 261 277 285 287 291 294 299 302 302 305 305 306 307 308 311 314 312 309 304 301 300 299 301 301 301 302 305 307 307
200 204 207 212 218 223 224 226 234 228 207 208 216 237 259 269 275 283 290 294 304 305 305 311 311 312 311 311 312 314 316 319 316 311 305 303 303 301 302 302 305 308 310 311
204 210 215 220 225 222 211 201 198 203 213 232 246 253 264 271 279 283 287 294 301 307 310 314 318 318 316 314 316 316 316 314 316 314 308 304 303 303 304 306 307 311 312 312
205 211 213 207 195 191 187 191 200 213 226 238 251 256 269 276 280 286 290 298 304 308 310 310 315 317 317 316 316 319 316 315 315 317 316 311 306 305 306 309 312 314 315 316
208 205 194 188 190 190 198 207 216 224 235 249 259 267 276 280 282 287 293 299 301 303 305 307 314 316 316 319 319 320 318 317 318 317 316 316 311 309 310 314 316 318 320 320
209 199 197 195 197 207 213 221 227 239 250 260 263 271 275 280 281 284 289 292 296 298 305 308 312 312 314 317 317 318 319 320 321 320 318 317 314 313 315 318 318 320 321 319
209 206 205 206 216 221 225 232 241 250 260 267 274 277 280 283 283 285 286 293 296 300 303 306 309 311 314 315 317 318 318 318 319 319 318 316 314 315 317 318 320 322 322 320
213 214 213 217 220 227 238 245 249 259 266 270 276 281 289 288 286 284 287 293 298 300 302 305 306 309 312 315 317 317 318 316 317 317 317 316 314 316 318 319 321 323 322 320
216 218 223 228 230 238 249 252 260 264 268 274 278 280 283 286 286 285 289 295 298 300 300 303 305 309 311 314 315 315 315 317 316 316 316 316 317 318 319 319 321 321 320 318
224 227 229 234 236 245 254 261 261 266 273 276 278 282 285 287 286 286 291 295 297 297 301 303 306 309 311 313 313 314 315 315 315 315 317 317 317 317 318 320 321 320 318 317
234 236 237 240 243 247 257 264 270 271 275 277 282 284 289 290 288 290 292 294 295 298 301 303 307 309 310 311 312 313 315 314 314 316 316 316 316 318 319 320 320 318 319 320
241 246 248 247 248 252 260 268 273 277 280 285 285 287 292 294 293 296 293 293 295 298 302 305 307 309 311 311 312 313 314 313 314 315 316 316 317 319 319 319 317 317 320 322
246 248 250 252 255 259 263 271 278 281 282 285 288 289 291 293 295 297 296 294 295 299 303 304 306 308 310 311 312 312 312 313 315 315 316 317 319 319 319 316 319 323 322 323
251 253 255 258 261 265 271 275 277 280 283 285 287 288 290 292 293 295 295 294 299 302 303 305 307 309 309 310 311 312 312 313 314 316 317 318 318 317 317 320 321 323 323 322
254 257 261 265 269 271 272 275 277 280 283 285 288 291 292 293 294 296 299 301 301 303 304 305 306 308 308 310 311 311 312 314 315 316 316 317 316 317 320 321 321 321 322 322
257 261 265 269 271 273 274 275 278 281 285 288 291 290 291 293 295 298 300 301 301 303 304 306 307 307 309 310 310 312 313 314 314 314 317 317 317 318 319 321 321 321 322 321
263 268 272 275 275 276 278 281 282 283 286 287 289 292 295 298 299 299 300 301 303 304 306 306 308 309 309 310 311 312 313 314 314 317 317 317 319 319 319 320 320 320 320 320
267 273 276 278 280 282 283 283 283 284 286 290 292 295 298 299 299 300 301 302 304 306 307 308 308 308 309 311 311 312 313 314 316 316 317 318 319 319 319 319 319 319 319 318
Height
10615 10620 10625 10628 10632 10637 10640 10645 10650 10654 10658 10663 10667 10669 10671 10672 10674 10676 10678 10678 10679 10679 10679 10678 10675 10671 10667 10666 10665 10663 10661 10657 10654 10650 10646 10641 10634 10630 10624 10618 10611 10605 10600 10593
10615 10619 10623 10626 10630 10634 10638 10642 10645 10651 10655 10657 10660 10662 10664 10665 10666 10668 10669 10669 10669 10669 10669 10667 10663 10657 10654 10653 10651 10647 10646 10644 10640 10635 10632 10629 10625 10620 10613 10604 10599 10593 10587 10577
10613 10618 10622 10625 10629 10632 10635 10639 10642 10646 10648 10650 10653 10655 10657 10659 10660 10660 10660 10661 10660 10658 10657 10654 10650 10646 10643 10642 10640 10637 10634 10631 10628 10625 10622 10618 10612 10605 10599 10593 10587 10578 10568 10558
10613 10616 10620 10624 10626 10629 10632 10636 10639 10641 10643 10645 10646 10648 10650 10652 10653 10652 10652 10651 10649 10648 10646 10644 10642 10639 10636 10633 10631 10627 10623 10620 10616 10613 10608 10603 10598 10591 10583 10577 10569 10561 10552 10543
10610 10614 10617 10620 10623 10626 10628 10630 10633 10635 10636 10637 10639 10642 10644 10645 10645 10644 10643 10642 10641 10639 10637 10636 10634 10632 10629 10626 10622 10618 10614 10610 10606 10601 10595 10589 10582 10576 10569 10561 10554 10545 10537 10527
10607 10611 10614 10617 10619 10622 10624 10626 10628 10628 10630 10632 10634 10636 10638 10637 10637 10636 10635 10634 10633 10632 10631 10629 10627 10625 10621 10617 10613 10608 10604 10599 10593 10587 10580 10574 10566 10558 10551 10543 10535 10528 10519 10512
10604 10607 10610 10613 10616 10618 10620 10621 10623 10625 10627 10629 10629 10630 10630 10629 10629 10629 10629 10629 10629 10628 10626 10624 10621 10617 10613 10609 10605 10600 10594 10587 10580 10572 10565 10557 10549 10541 10534 10526 10520 10511 10503 10495
10602 10605 10607 10610 10612 10615 10617 10618 10620 10621 10621 10622 10624 10624 10624 10625 10626 10626 10626 10626 10624 10622 10620 10617 10614 10611 10607 10601 10594 10588 10582 10574 10567 10558 10550 10543 10534 10527 10519 10512 10504 10496 10488 10479
10600 10603 10605 10608 10609 10612 10614 10615 10616 10617 10618 10619 10620 10621 10621 10621 10621 10621 10621 10620 10618 10616 10614 10611 10606 10601 10596 10590 10584 10577 10569 10561 10552 10543 10536 10528 10520 10512 10504 10496 10488 10480 10469 10457
10599 10601 10602 10605 10606 10608 10609 10610 10611 10612 10614 10616 10617 10617 10617 10618 10617 10617 10615 10614 10613 10610 10607 10603 10597 10591 10585 10579 10572 10565 10557 10548 10540 10531 10523 10516 10508 10500 10492 10482 10472 10462 10449 10437
10595 10597 10599 10601 10603 10604 10604 10606 10609 10610 10611 10611 10612 10613 10613 10613 10612 10611 10610 10608 10605 10602 10598 10593 10588 10582 10575 10568 10561 10554 10546 10538 10529 10520 10512 10503 10494 10485 10476 10466 10455 10443 10429 10414
10592 10594 10596 10597 10599 10600 10602 10604 10606 10608 10608 10609 10609 10609 10608 10607 10606 10604 10602 10600 10596 10592 10587 10583 10578 10571 10564 10557 10551 10543 10535 10525 10515 10506 10497 10487 10477 10468 10457 10446 10433 10420 10405 10387
10589 10591 10592 10595 10597 10599 10601 10603 10604 10604 10605 10605 10604 10604 10602 10601 10598 10596 10594 10590 10586 10583 10578 10573 10567 10561 10554 10546 10539 10529 10520 10511 10500 10489 10479 10469 10459 10447 10436 10424 10410 10394 10377 10357
10586 10588 10590 10593 10594 10596 10598 10599 10599 10600 10600 10600 10598 10598 10597 10594 10591 10589 10586 10582 10578 10574 10568 10563 10556 10549 10541 10533 10524 10516 10506 10494 10483 10473 10462 10450 10438 10427 10415 10401 10385 10369 10352 10333
10583 10585 10588 10590 10591 10593 10594 10594 10595 10595 10595 10594 10592 10590 10590 10588 10584 10580 10576 10573 10568 10562 10557 10550 10543 10535 10527 10519 10510 10500 10489 10477 10466 10455 10443 10432 10419 10407 10393 10378 10363 10345 10325 10306
10580 10581 10583 10585 10586 10587 10589 10588 10588 10589 10589 10587 10586 10581 10581 10578 10575 10571 10567 10562 10556 10550 10544 10537 10529 10521 10512 10502 10492 10481 10469 10459 10449 10436 10424 10413 10400 10386 10370 10354 10336 10318 10300 10280
10575 10577 10579 10580 10581 10583 10581 10580 10583 10582 10580 10580 10578 10575 10573 10569 10564 10560 10556 10550 10544 10537 10530 10523 10514 10504 10495 10485 10475 10464 10454 10441 10429 10417 10405 10392 10377 10362 10347 10329 10312 10294 10276 10257
10570 10572 10573 10574 10576 10576 10572 10573 10575 10575 10572 10570 10568 10565 10561 10557 10553 10548 10544 10538 10531 10523 10515 10507 10498 10489 10479 10469 10458 10446 10433 10422 10409 10396 10383 10369 10355 10340 10324 10305 10287 10269 10250 10233
10564 10566 10567 10567 10568 10568 10565 10564 10565 10565 10562 10560 10557 10553 10550 10546 10542 10537 10531 10524 10516 10508 10500 10492 10483 10473 10463 10452 10439 10427 10415 10402 10389 10376 10362 10348 10333 10317 10299 10282 10263 10245 10227 10205
10558 10559 10560 10559 10560 10560 10557 10556 10556 10554 10553 10548 10544 10541 10537 10532 10528 10523 10515 10508 10500 10493 10485 10476 10466 10456 10445 10433 10420 10407 10395 10382 10368 10354 10340 10326 10310 10293 10276 10258 10240 10220 10200 10181
10551 10552 10551 10551 10552 10552 10550 10548 10546 10544 10541 10537 10533 10528 10523 10519 10514 10507 10500 10493 10485 10478 10469 10459 10448 10437 10426 10413 10401 10389 10377 10363 10348 10334 10319 10303 10286 10269 10252 10233 10213 10194 10176 10158
10543 10543 10542 10542 10542 10543 10541 10540 10537 10533 10529 10526 10522 10518 10513 10506 10498 10491 10484 10477 10470 10461 10450 10440 10429 10418 10406 10394 10382 10369 10356 10341 10326 10312 10296 10279 10263 10245 10225 10206 10187 10168 10152 10135
10534 10535 10533 10533 10533 10533 10531 10529 10526 10521 10518 10514 10510 10505 10498 10491 10484 10476 10469 10461 10452 10442 10431 10420 10409 10398 10386 10373 10360 10347 10334 10318 10303 10288 10272 10258 10238 10218 10199 10181 10162 10144 10128 10112
10524 10523 10524 10524 10521 10520 10519 10516 10513 10509 10505 10500 10494 10488 10481 10476 10470 10462 10453 10443 10433 10423 10413 10401 10389 10376 10364 10352 10340 10326 10312 10297 10281 10266 10249 10229 10211 10192 10174 10156 10140 10123 10107 10092
10513 10513 10514 10512 10509 10507 10505 10502 10499 10496 10491 10485 10478 10472 10465 10459 10451 10442 10433 10423 10413 10402 10391 10378 10366 10355 10341 10328 10315 10302 10289 10274 10257 10240 10221 10202 10184 10167 10149 10132 10116 10102 10088 10074
10502 10502 10501 10499 10495 10493 10491 10487 10483 10479 10474 10469 10462 10456 10447 10439 10430 10421 10411 10402 10391 10380 10368 10357 10345 10333 10319 10305 10291 10278 10262 10247 10231 10212 10193 10177 10159 10142 10124 10109 10094 10081 10067 10055